FW2996 Weather Reports


Display with metric or nautical units.
time (UTC)temp
F
wind
direction
speed
MPH
gust
MPH
rain 1hr
in
rain 24hr
in
rain mn
in
humidity
%
barometer
mb
20260905232956 95 112 4.0 6.0 0.00 0.00 0.00 41 1052.4
20260905232452 95 158 5.0 9.0 0.00 0.00 0.00 41 1052.5
20260905231948 94 119 1.0 4.0 0.00 0.00 0.00 41 1052.5
20260905231443 94 134 1.0 2.0 0.00 0.00 0.00 43 1052.4
20260905230934 94 134 6.0 8.0 0.00 0.00 0.00 43 1052.7
20260905230432 94 131 7.0 9.0 0.00 0.00 0.00 43 1052.5
20260905225925 95 113 4.0 8.0 0.00 0.00 0.00 42 1052.5
20260905225420 95 146 4.0 13.0 0.00 0.00 0.00 42 1052.5
20260905224915 95 125 6.0 8.0 0.00 0.00 0.00 42 1052.4
20260905224411 96 129 4.0 10.0 0.00 0.00 0.00 40 1052.4
20260905223905 95 65 0.0 9.0 0.00 0.00 0.00 40 1052.4
20260905223403 96 73 1.0 3.0 0.00 0.00 0.00 40 1052.5
20260905222903 96 131 4.0 7.0 0.00 0.00 0.00 41 1052.3
20260905222402 96 126 8.0 9.0 0.00 0.00 0.00 41 1052.4
20260905221858 95 76 2.0 6.0 0.00 0.00 0.00 40 1052.5
20260905221355 95 64 5.0 9.0 0.00 0.00 0.00 40 1052.5
20260905220850 96 174 4.0 6.0 0.00 0.00 0.00 41 1052.7
20260905220347 96 147 3.0 11.0 0.00 0.00 0.00 41 1052.6
20260905215846 97 125 8.0 11.0 0.00 0.00 0.00 41 1052.5
20260905215341 97 152 6.0 8.0 0.00 0.00 0.00 40 1052.8
20260905214832 97 85 4.0 9.0 0.00 0.00 0.00 40 1052.5
20260905214327 98 141 7.0 9.0 0.00 0.00 0.00 41 1052.6
20260905213822 97 150 4.0 9.0 0.00 0.00 0.00 42 1052.6
20260905213318 97 197 4.0 7.0 0.00 0.00 0.00 41 1052.6
20260905212813 96 178 5.0 10.0 0.00 0.00 0.00 41 1052.6
20260905212312 97 104 2.0 8.0 0.00 0.00 0.00 40 1052.5
20260905211807 97 75 1.0 3.0 0.00 0.00 0.00 39 1052.7
20260905211302 97 134 2.0 7.0 0.00 0.00 0.00 39 1052.7
20260905210759 98 129 3.0 6.0 0.00 0.00 0.00 38 1052.7
20260905210258 98 208 3.0 4.0 0.00 0.00 0.00 39 1052.8
20260905205757 97 242 2.0 3.0 0.00 0.00 0.00 39 1053.0
20260905205252 98 147 4.0 10.0 0.00 0.00 0.00 39 1053.0
20260905204751 98 170 5.0 7.0 0.00 0.00 0.00 40 1053.0
20260905204248 98 156 3.0 10.0 0.00 0.00 0.00 40 1053.0
20260905203747 97 54 1.0 6.0 0.00 0.00 0.00 40 1053.4
20260905203242 95 8 3.0 4.0 0.00 0.00 0.00 41 1053.4
20260905202738 96 134 2.0 9.0 0.00 0.00 0.00 42 1053.4
20260905202238 96 141 5.0 8.0 0.00 0.00 0.00 41 1053.5
20260905201733 95 122 3.0 10.0 0.00 0.00 0.00 43 1053.5
20260905201228 96 141 5.0 10.0 0.00 0.00 0.00 41 1053.6
20260905200723 96 72 0.0 2.0 0.00 0.00 0.00 42 1053.7
20260905200219 96 146 2.0 3.0 0.00 0.00 0.00 42 1053.8
20260905195717 95 129 2.0 6.0 0.00 0.00 0.00 43 1054.1
20260905195213 95 124 4.0 11.0 0.00 0.00 0.00 43 1054.2
20260905194708 96 122 5.0 8.0 0.00 0.00 0.00 42 1054.2
20260905194207 95 180 4.0 6.0 0.00 0.00 0.00 42 1054.2
20260905193701 93 150 4.0 7.0 0.00 0.00 0.00 45 1054.3
20260905193156 94 138 9.0 9.0 0.00 0.00 0.00 43 1054.4
20260905192652 96 158 3.0 3.0 0.00 0.00 0.00 41 1054.5
20260905192149 96 138 4.0 4.0 0.00 0.00 0.00 41 1054.4
20260905191648 96 252 2.0 3.0 0.00 0.00 0.00 41 1054.8
20260905191145 95 132 7.0 8.0 0.00 0.00 0.00 43 1054.7
20260905190644 95 168 4.0 9.0 0.00 0.00 0.00 44 1054.8
20260905190144 93 125 7.0 9.0 0.00 0.00 0.00 47 1054.8
20260905185637 93 231 3.0 8.0 0.00 0.00 0.00 46 1055.0
20260905185132 93 152 2.0 4.0 0.00 0.00 0.00 47 1055.0
20260905184632 94 141 6.0 11.0 0.00 0.00 0.00 47 1055.1
20260905184131 94 197 5.0 8.0 0.00 0.00 0.00 46 1055.1
20260905183631 94 117 4.0 10.0 0.00 0.00 0.00 47 1055.4
20260905183126 94 146 2.0 6.0 0.00 0.00 0.00 46 1055.2
20260905182625 92 140 7.0 13.0 0.00 0.00 0.00 49 1055.5
20260905182125 93 227 2.0 3.0 0.00 0.00 0.00 46 1055.5
20260905181620 92 106 4.0 6.0 0.00 0.00 0.00 49 1055.7
20260905181119 91 116 3.0 11.0 0.00 0.00 0.00 52 1055.8
20260905180614 92 90 4.0 7.0 0.00 0.00 0.00 51 1055.9
20260905180110 92 121 4.0 9.0 0.00 0.00 0.00 53 1055.9
20260905175609 92 139 6.0 10.0 0.00 0.00 0.00 53 1056.3
20260905175104 91 130 3.0 3.0 0.00 0.00 0.00 54 1056.1
20260905174600 92 219 4.0 8.0 0.00 0.00 0.00 53 1056.3
20260905174055 91 157 4.0 9.0 0.00 0.00 0.00 54 1056.4
20260905173551 91 147 2.0 8.0 0.00 0.00 0.00 54 1056.5
20260905173046 91 131 6.0 8.0 0.00 0.00 0.00 53 1056.5
20260905172545 91 121 7.0 9.0 0.00 0.00 0.00 55 1056.5
20260905172040 90 61 2.0 6.0 0.00 0.00 0.00 54 1056.6
20260905171537 91 171 4.0 9.0 0.00 0.00 0.00 53 1056.4
20260905171032 91 118 2.0 4.0 0.00 0.00 0.00 53 1056.4
20260905170529 88 151 2.0 7.0 0.00 0.00 0.00 58 1056.5
20260905170024 90 220 5.0 8.0 0.00 0.00 0.00 58 1056.7
20260905165518 90 204 4.0 11.0 0.00 0.00 0.00 57 1056.6
20260905165013 89 115 1.0 6.0 0.00 0.00 0.00 59 1056.6
20260905164508 89 188 3.0 7.0 0.00 0.00 0.00 61 1056.7
20260905164003 89 274 2.0 6.0 0.00 0.00 0.00 59 1056.5
20260905163459 89 159 6.0 8.0 0.00 0.00 0.00 59 1056.8
20260905162955 89 178 3.0 4.0 0.00 0.00 0.00 58 1056.7
20260905162450 92 119 2.0 6.0 0.00 0.00 0.00 54 1056.6
20260905161944 90 180 3.0 8.0 0.00 0.00 0.00 60 1056.6
20260905161438 89 154 2.0 6.0 0.00 0.00 0.00 60 1056.8
20260905160936 89 255 4.0 6.0 0.00 0.00 0.00 62 1056.8
20260905160430 89 254 1.0 4.0 0.00 0.00 0.00 62 1056.7
20260905155930 90 136 3.0 6.0 0.00 0.00 0.00 61 1056.9
20260905155425 88 267 3.0 7.0 0.00 0.00 0.00 63 1056.8
20260905154923 87 167 3.0 8.0 0.00 0.00 0.00 66 1056.8
20260905154419 86 244 3.0 8.0 0.00 0.00 0.00 69 1056.8
20260905153915 86 168 2.0 9.0 0.00 0.00 0.00 69 1056.9
20260905153411 86 223 4.0 8.0 0.00 0.00 0.00 70 1056.6
20260905152910 86 187 4.0 6.0 0.00 0.00 0.00 69 1056.8
20260905152409 86 186 2.0 6.0 0.00 0.00 0.00 71 1056.8
20260905151905 87 339 1.0 8.0 0.00 0.00 0.00 73 1056.9
20260905151400 87 100 4.0 4.0 0.00 0.00 0.00 71 1056.8
20260905150854 86 143 4.0 6.0 0.00 0.00 0.00 74 1056.9
20260905150349 85 133 1.0 7.0 0.00 0.00 0.00 77 1056.7
20260905145846 84 152 2.0 4.0 0.00 0.00 0.00 79 1056.9
20260905145340 84 277 2.0 6.0 0.00 0.00 0.00 80 1056.9
20260905144839 82 143 1.0 3.0 0.00 0.00 0.00 83 1056.7
20260905144335 82 170 4.0 6.0 0.00 0.00 0.00 85 1056.6
20260905143833 82 207 2.0 3.0 0.00 0.00 0.00 84 1056.8
20260905143328 82 235 3.0 7.0 0.00 0.00 0.00 85 1056.8
20260905142828 80 226 4.0 6.0 0.00 0.00 0.00 89 1056.9
20260905142321 80 211 2.0 6.0 0.00 0.00 0.00 90 1056.8
20260905141818 81 248 6.0 9.0 0.00 0.00 0.00 88 1056.6
20260905141313 82 189 2.0 3.0 0.00 0.00 0.00 88 1056.6
20260905140808 80 214 2.0 3.0 0.00 0.00 0.00 90 1056.7
20260905140302 79 241 1.0 3.0 0.00 0.00 0.00 92 1056.7
20260905135801 78 218 1.0 3.0 0.00 0.00 0.00 94 1056.4
20260905135258 77 212 1.0 2.0 0.00 0.00 0.00 95 1056.4
20260905134757 77 140 2.0 3.0 0.00 0.00 0.00 96 1056.4
20260905134251 76 124 1.0 2.0 0.00 0.00 0.00 97 1056.4
20260905133745 75 125 2.0 3.0 0.00 0.00 0.00 97 1056.4
20260905133241 75 121 0.0 2.0 0.00 0.00 0.00 98 1056.5
20260905132740 75 115 1.0 3.0 0.00 0.00 0.00 98 1056.3
20260905132236 75 116 1.0 2.0 0.00 0.00 0.00 96 1056.3
20260905131730 74 116 1.0 1.0 0.00 0.00 0.00 97 1056.2
20260905131225 74 116 1.0 2.0 0.00 0.00 0.00 97 1056.0
20260905130720 74 117 1.0 2.0 0.00 0.00 0.00 97 1056.0
20260905130219 74 216 2.0 2.0 0.00 0.00 0.00 97 1056.0
20260905125715 74 251 0.0 0.0 0.00 0.00 0.00 97 1055.9
20260905125210 73 251 0.0 0.0 0.00 0.00 0.00 97 1055.9
20260905124706 73 251 0.0 0.0 0.00 0.00 0.00 98 1055.7
20260905124202 72 251 0.0 0.0 0.00 0.00 0.00 98 1055.7
20260905123656 72 251 0.0 0.0 0.00 0.00 0.00 98 1055.7
20260905123154 73 251 0.0 0.0 0.00 0.00 0.00 98 1055.7
20260905122653 73 251 0.0 0.0 0.00 0.00 0.00 98 1055.7
20260905122148 72 251 0.0 0.0 0.00 0.00 0.00 98 1055.8
20260905121648 73 251 0.0 0.0 0.00 0.00 0.00 98 1055.5
20260905121143 73 251 0.0 0.0 0.00 0.00 0.00 98 1055.7
20260905120642 72 251 0.0 0.0 0.00 0.00 0.00 98 1055.6
20260905120137 72 251 0.0 0.0 0.00 0.00 0.00 98 1055.6
20260905115632 73 251 0.0 0.0 0.00 0.00 0.00 97 1055.6
20260905115127 73 251 0.0 0.0 0.00 0.00 0.00 98 1055.5
20260905114627 73 251 0.0 0.0 0.00 0.00 0.00 98 1055.6
20260905114125 73 251 0.0 0.0 0.00 0.00 0.00 98 1055.3
20260905113620 73 251 0.0 0.0 0.00 0.00 0.00 98 1055.4
20260905113115 73 251 0.0 0.0 0.00 0.00 0.00 98 1055.5
20260905112609 73 251 0.0 0.0 0.00 0.00 0.00 98 1055.3
20260905112105 73 251 0.0 0.0 0.00 0.00 0.00 98 1055.5
20260905111555 73 251 0.0 0.0 0.00 0.00 0.00 97 1055.4
20260905111054 73 251 0.0 0.0 0.00 0.00 0.00 97 1055.3
20260905110553 73 251 0.0 0.0 0.00 0.00 0.00 97 1055.3
20260905110049 73 251 0.0 0.0 0.00 0.00 0.00 97 1055.1
20260905105548 73 251 0.0 0.0 0.00 0.00 0.00 96 1055.2
20260905105048 74 251 0.0 0.0 0.00 0.00 0.00 96 1055.3
20260905104544 74 251 0.0 0.0 0.00 0.00 0.00 96 1055.2
20260905104043 74 251 0.0 0.0 0.00 0.00 0.00 96 1055.2
20260905103538 74 251 0.0 0.0 0.00 0.00 0.00 96 1055.2
20260905103034 75 251 0.0 0.0 0.00 0.00 0.00 96 1055.2
20260905102529 75 251 0.0 0.0 0.00 0.00 0.00 95 1055.2
20260905102026 75 251 0.0 0.0 0.00 0.00 0.00 96 1055.1
20260905101524 75 251 0.0 0.0 0.00 0.00 0.00 95 1054.9
20260905101023 75 251 0.0 0.0 0.00 0.00 0.00 95 1055.0
20260905100520 75 251 0.0 0.0 0.00 0.00 0.00 95 1055.1
20260905100014 75 251 0.0 0.0 0.00 0.00 0.00 95 1055.1
20260905095508 75 251 0.0 0.0 0.00 0.00 0.00 95 1055.0
20260905095004 75 250 0.0 0.0 0.00 0.00 0.00 95 1055.0
20260905094458 75 251 0.0 1.0 0.00 0.00 0.00 95 1055.1
20260905093957 75 251 0.0 0.0 0.00 0.00 0.00 95 1055.0
20260905093452 75 251 0.0 0.0 0.00 0.00 0.00 94 1055.1
20260905092949 75 251 0.0 0.0 0.00 0.00 0.00 94 1055.1
20260905092443 76 251 0.0 0.0 0.00 0.00 0.00 94 1054.9
20260905091938 76 251 1.0 1.0 0.00 0.00 0.00 94 1055.0
20260905091432 76 212 0.0 0.0 0.00 0.00 0.00 94 1055.2
20260905090932 76 211 1.0 2.0 0.00 0.00 0.00 93 1055.2
20260905090427 76 223 1.0 1.0 0.00 0.00 0.00 94 1055.2
20260905085926 76 139 0.0 0.0 0.00 0.00 0.00 93 1055.2
20260905085425 76 139 0.0 3.0 0.00 0.00 0.00 93 1055.1
20260905084922 76 152 2.0 2.0 0.00 0.00 0.00 93 1055.2
20260905084421 76 175 0.0 2.0 0.00 0.00 0.00 92 1054.9
20260905083916 77 152 1.0 3.0 0.00 0.00 0.00 92 1055.1
20260905083412 77 164 0.0 2.0 0.00 0.00 0.00 92 1055.4
20260905082907 77 193 1.0 2.0 0.00 0.00 0.00 92 1055.1
20260905082404 77 172 2.0 6.0 0.00 0.00 0.00 92 1055.4
20260905081858 77 130 1.0 3.0 0.00 0.00 0.00 91 1055.2
20260905081353 77 136 1.0 4.0 0.00 0.00 0.00 91 1055.2
20260905080852 77 135 3.0 7.0 0.00 0.00 0.00 91 1055.4
20260905080346 77 113 3.0 4.0 0.00 0.00 0.00 91 1055.3
20260905075845 77 167 2.0 3.0 0.00 0.00 0.00 91 1055.5
20260905075340 77 182 1.0 7.0 0.00 0.00 0.00 90 1055.4
20260905074839 77 168 1.0 7.0 0.00 0.00 0.00 90 1055.6
20260905074335 77 157 2.0 3.0 0.00 0.00 0.00 90 1055.4
20260905073831 77 121 2.0 6.0 0.00 0.00 0.00 89 1055.5
20260905073325 78 140 2.0 6.0 0.00 0.00 0.00 89 1055.6
20260905072820 78 97 2.0 4.0 0.00 0.00 0.00 89 1055.5
20260905072315 78 132 2.0 6.0 0.00 0.00 0.00 89 1055.7
20260905071812 78 151 1.0 8.0 0.00 0.00 0.00 89 1055.7
20260905071307 78 176 2.0 4.0 0.00 0.00 0.00 88 1055.7
20260905070802 78 181 4.0 7.0 0.00 0.00 0.00 88 1055.5
20260905070258 78 164 3.0 8.0 0.00 0.00 0.00 88 1055.8
20260905065756 78 126 2.0 6.0 0.00 0.00 0.00 88 1055.7
20260905065250 78 169 2.0 4.0 0.00 0.00 0.00 88 1055.6
20260905064746 78 158 5.0 7.0 0.00 0.00 0.00 87 1055.7
20260905064242 78 136 2.0 8.0 0.00 0.00 0.00 87 1055.5
20260905063740 78 171 5.0 6.0 0.00 0.00 0.00 87 1055.6
20260905063236 79 189 2.0 7.0 0.00 0.00 0.00 87 1055.6
20260905062732 79 126 3.0 9.0 0.00 0.00 0.00 86 1055.8
20260905062231 79 171 2.0 7.0 0.00 0.00 0.00 86 1055.9
20260905061726 79 185 4.0 7.0 0.00 0.00 0.00 86 1055.9
20260905061220 79 166 2.0 4.0 0.00 0.00 0.00 86 1055.6
20260905060714 79 166 7.0 9.0 0.00 0.00 0.00 86 1056.0
20260905060211 79 146 3.0 8.0 0.00 0.00 0.00 85 1055.8
20260905055709 79 160 4.0 6.0 0.00 0.00 0.00 85 1055.7
20260905055205 79 166 4.0 7.0 0.00 0.00 0.00 85 1055.7
20260905054700 79 205 4.0 7.0 0.00 0.00 0.00 85 1055.8
20260905054156 79 108 3.0 6.0 0.00 0.00 0.00 84 1055.7
20260905053655 79 122 4.0 7.0 0.00 0.00 0.00 84 1055.8
20260905053150 79 204 6.0 9.0 0.00 0.00 0.00 84 1055.9
20260905052645 79 151 3.0 7.0 0.00 0.00 0.00 84 1055.6
20260905052140 79 165 5.0 7.0 0.00 0.00 0.00 83 1055.9
20260905051635 79 136 3.0 6.0 0.00 0.00 0.00 83 1055.9
20260905051131 79 140 3.0 9.0 0.00 0.00 0.00 83 1055.8
20260905050622 80 153 3.0 8.0 0.00 0.00 0.00 82 1055.8
20260905050118 80 172 3.0 6.0 0.00 0.00 0.00 82 1055.7
20260905045612 79 161 4.0 6.0 0.00 0.00 0.00 82 1055.8
20260905045108 80 138 2.0 7.0 0.00 0.00 0.00 81 1055.9
20260905044602 80 135 4.0 6.0 0.00 0.00 0.00 81 1055.9
20260905044056 80 151 4.0 6.0 0.00 0.00 0.00 81 1056.0
20260905043555 80 132 3.0 8.0 0.00 0.00 0.00 80 1055.9
20260905043051 80 140 4.0 7.0 0.00 0.00 0.00 80 1056.0
20260905042549 80 148 2.0 4.0 0.00 0.00 0.00 79 1055.8
20260905042045 80 119 2.0 7.0 0.00 0.00 0.00 79 1055.8
20260905041540 80 196 3.0 6.0 0.00 0.00 0.00 79 1056.0
20260905041036 80 150 2.0 6.0 0.00 0.00 0.00 78 1055.9
20260905040535 80 145 3.0 6.0 0.00 0.00 0.00 78 1055.6
20260905040034 80 114 3.0 4.0 0.00 0.00 0.00 77 1055.8
20260905035529 80 143 2.0 6.0 0.00 0.00 0.00 77 1055.7
20260905035026 80 173 3.0 4.0 0.00 0.00 0.00 77 1055.8
20260905034521 80 117 2.0 6.0 0.00 0.00 0.00 76 1055.6
20260905034021 80 145 4.0 6.0 0.00 0.00 0.00 76 1055.6
20260905033515 80 140 5.0 6.0 0.00 0.00 0.00 75 1055.7
20260905033011 80 131 2.0 4.0 0.00 0.00 0.00 75 1055.6
20260905032506 80 137 4.0 4.0 0.00 0.00 0.00 75 1055.7
20260905032001 80 138 1.0 6.0 0.00 0.00 0.00 75 1055.7
20260905031456 80 151 4.0 6.0 0.00 0.00 0.00 75 1055.6
20260905030951 80 134 2.0 3.0 0.00 0.00 0.00 75 1055.5
20260905030447 80 131 2.0 2.0 0.00 0.00 0.00 75 1055.6
20260905025945 80 133 3.0 4.0 0.00 0.00 0.00 75 1055.5
20260905025441 80 125 3.0 4.0 0.00 0.00 0.00 74 1055.5
20260905024937 80 142 3.0 3.0 0.00 0.00 0.00 74 1055.4
20260905024431 81 126 2.0 2.0 0.00 0.00 0.00 73 1055.5
20260905023926 81 114 2.0 3.0 0.00 0.00 0.00 73 1055.2
20260905023421 81 127 2.0 3.0 0.00 0.00 0.00 73 1055.0
20260905022921 81 134 2.0 4.0 0.00 0.00 0.00 72 1055.1
20260905022416 82 106 2.0 3.0 0.00 0.00 0.00 71 1055.1
20260905021911 82 121 1.0 4.0 0.00 0.00 0.00 71 1055.0
20260905021406 82 122 3.0 6.0 0.00 0.00 0.00 70 1055.0
20260905020902 82 184 2.0 4.0 0.00 0.00 0.00 70 1054.9
20260905020400 82 122 1.0 4.0 0.00 0.00 0.00 70 1054.9
20260905015855 83 147 3.0 6.0 0.00 0.00 0.00 70 1054.9
20260905015354 83 141 4.0 6.0 0.00 0.00 0.00 69 1054.8
20260905014853 83 138 4.0 6.0 0.00 0.00 0.00 69 1054.8
20260905014349 83 136 2.0 4.0 0.00 0.00 0.00 69 1054.9
20260905013844 84 125 4.0 7.0 0.00 0.00 0.00 68 1054.9
20260905013340 84 169 5.0 8.0 0.00 0.00 0.00 68 1054.8
20260905012835 84 125 3.0 7.0 0.00 0.00 0.00 67 1054.7
20260905012330 84 123 9.0 10.0 0.00 0.00 0.00 67 1054.7
20260905011827 85 140 4.0 9.0 0.00 0.00 0.00 66 1054.6
20260905011322 85 160 4.0 9.0 0.00 0.00 0.00 65 1054.6
20260905010817 85 115 4.0 6.0 0.00 0.00 0.00 65 1054.5
20260905010318 85 131 3.0 8.0 0.00 0.00 0.00 65 1054.4
20260905005815 86 202 4.0 10.0 0.00 0.00 0.00 64 1054.6
20260905005310 86 135 5.0 10.0 0.00 0.00 0.00 64 1054.4
20260905004809 86 146 4.0 10.0 0.00 0.00 0.00 64 1054.3
20260905004259 86 137 5.0 11.0 0.00 0.00 0.00 64 1054.4
20260905003754 87 131 7.0 11.0 0.00 0.00 0.00 62 1054.4
20260905003250 87 132 4.0 11.0 0.00 0.00 0.00 60 1054.4
20260905002745 88 130 3.0 9.0 0.00 0.00 0.00 57 1054.3
20260905002240 88 173 5.0 8.0 0.00 0.00 0.00 55 1054.1
20260905001735 88 162 6.0 8.0 0.00 0.00 0.00 54 1054.2
20260905001234 89 141 4.0 8.0 0.00 0.00 0.00 53 1053.9
20260905000729 89 148 4.0 8.0 0.00 0.00 0.00 51 1053.9
20260905000226 89 121 4.0 4.0 0.00 0.00 0.00 48 1053.8
20260904235720 90 150 3.0 6.0 0.00 0.00 0.00 46 1053.8
20260904235214 90 122 6.0 8.0 0.00 0.00 0.00 45 1053.5
20260904234708 91 192 5.0 9.0 0.00 0.00 0.00 43 1053.5
20260904234204 91 165 3.0 9.0 0.00 0.00 0.00 43 1053.4
20260904233700 91 174 4.0 8.0 0.00 0.00 0.00 42 1053.5
20260904233155 91 138 5.0 11.0 0.00 0.00 0.00 42 1053.5